[[{"header":{"parameterUnit":"m.s-1","parameterCategory":1,"la1":30.2991,"la2":30.254,"lo1":-89.0895,"lo2":-89.0444,"dy":0.0017,"dx":0.0017,"nx":28,"ny":28,"refTime":"2024-07-12T21:00:00:Z","depth":0,"parameterNumber":2,"parameterNumberName":"U-component_of_WINDS"},"data":[0,0,0,0,0,0,0,0,0,0,0,0,0,0,0,0,0,0,0,0,0,0,0,0,0,0,0,0,0,0,0,0,0,0,0,0,0,0,0,0,0,0,0,0,0,0,0,0,0,0,0,0,0,0,0,0,0,0,5.5809,5.5809,0,5.5826,5.5827,5.5827,5.5696,5.5692,5.5689,5.5685,5.5706,5.571,5.5714,0,0,0,0,0,0,0,0,0,0,0,0,0,5.5664,5.5667,5.5809,5.5809,5.5809,5.5826,5.5827,5.5827,5.5697,5.5692,5.5688,5.5683,5.5705,5.5709,5.5714,0,0,0,0,0,0,0,0,0,0,0,0,0,5.5709,5.5668,5.5809,5.5746,5.5741,5.5826,5.5827,5.5827,5.5697,5.5692,5.5686,5.5681,5.5703,5.5709,5.5715,5.5862,0,0,5.5733,5.5736,0,0,0,0,0,0,0,0,5.5707,5.5714,5.5755,5.5751,5.5745,5.5753,5.5783,5.5839,5.5699,5.5714,5.5685,5.5679,5.5726,5.573,5.5746,5.5863,5.5864,5.5734,5.5737,5.574,5.5742,0,0,0,0,0,0,0,5.5704,5.5713,5.5816,5.5756,5.575,5.5718,5.5718,5.5793,5.5751,5.5712,5.5703,5.5707,5.5722,5.574,5.5745,5.5864,5.5733,5.5739,5.5742,5.5745,5.6098,5.6104,0,0,0,0,0,0,5.5709,5.5711,5.5815,5.5816,5.5712,5.5725,5.5725,5.5756,5.575,5.5744,5.5711,5.57,5.5733,5.5738,5.5745,5.5913,5.574,5.5745,5.5749,5.6092,5.6099,5.6106,0,0,0,0,0,0,5.5706,5.5719,5.5815,5.5761,5.5771,5.5733,5.5769,5.5759,5.5777,5.5749,5.5741,5.5737,5.5729,5.5737,5.5833,5.5912,5.5748,5.5754,5.6086,5.6095,5.6103,5.6252,0,0,0,0,0,0,5.5702,5.5719,5.5775,5.5763,5.5774,5.5902,5.5774,5.5764,5.5787,5.5773,5.5771,5.5765,5.5725,5.5824,5.5839,5.5917,5.5758,5.6078,5.609,5.61,5.624,5.6264,5.6286,0,0,0,0,0,5.5698,5.5818,5.5778,5.5791,5.5843,5.5907,5.5913,5.5863,5.5794,5.5849,5.5831,5.5765,5.5902,5.5835,5.585,5.5932,5.6073,5.6086,5.6099,5.6229,5.626,5.6285,0,0,0,0,0,0,5.5841,5.5815,5.5771,5.5891,5.5902,5.5884,5.5952,5.5898,5.5929,5.5915,5.5853,5.5854,5.5959,5.5955,5.5882,5.6071,5.5975,5.5992,5.6069,5.6098,5.6121,5.6117,5.5763,0,0,0,0,0,5.5887,5.594,5.5915,5.6023,5.6031,5.5991,5.6017,5.5978,5.5987,5.5991,5.598,5.5992,5.6036,5.6068,5.6108,5.624,5.6235,5.6303,5.6326,5.6345,5.6359,5.6424,5.6452,5.6149,5.6148,5.6148,0,0,5.5982,5.5974,5.6012,5.6052,5.6055,5.6111,5.5996,5.6061,5.6102,5.6001,5.6089,5.6082,5.6091,5.6204,5.6253,5.6204,5.6442,5.6362,5.6377,5.6381,5.644,5.6469,5.6494,5.6157,5.6156,5.6154,0,0,5.6181,5.6183,5.627,5.6276,5.6282,5.6254,5.6275,5.6266,5.6256,5.6343,5.6267,5.6316,5.6396,5.6404,5.6419,5.6619,5.6558,5.6635,5.6754,5.6818,5.6842,5.6862,5.6929,5.6955,5.6649,5.665,5.665,0,5.6298,5.6378,5.6323,5.6391,5.641,5.632,5.6407,5.6416,5.6436,5.645,5.6396,5.6491,5.6492,5.6602,5.6651,5.6668,5.6688,5.6633,5.6843,5.6863,5.6881,5.6944,5.697,5.6658,5.6657,5.6657,5.6656,0,5.652,5.6577,5.6647,5.6665,5.6692,5.677,5.6725,5.676,5.6718,5.6696,5.6784,5.6781,5.6817,5.6842,5.6803,5.6947,5.6915,5.6853,5.6754,5.692,5.6978,5.7002,5.6671,5.6668,5.6665,5.6663,0,0,5.681,5.6794,5.682,5.6825,5.6824,5.6867,5.6941,5.6974,5.7002,5.702,5.7077,5.7146,5.7087,5.7104,5.7065,5.7122,5.7275,5.7052,5.7051,5.7089,5.7428,5.7471,5.75,5.7236,5.7241,5.7245,5.7425,0,5.7,5.7122,5.7073,5.7199,5.7249,5.7163,5.7227,5.7233,5.7215,5.7254,5.7235,5.7282,5.7203,5.7212,5.7265,5.7245,5.7341,5.7232,5.7287,5.729,5.7283,5.7531,5.7578,5.7749,5.7448,5.7452,5.7455,0,5.7239,5.7261,5.7392,5.7378,5.7397,5.7455,5.7479,5.7519,5.7524,5.7506,5.7524,5.7472,5.7542,5.7446,5.754,5.7467,5.7487,5.7481,5.7487,5.7486,5.7379,5.7533,5.7803,5.7826,5.7491,5.7488,5.7486,0,5.7431,5.7495,5.7579,5.7587,5.7575,5.7616,5.7614,5.7613,5.7635,5.7657,5.767,5.7702,5.7718,5.7743,5.77,5.7636,5.7799,5.7701,5.7784,5.7785,5.7819,5.7816,5.8091,5.7841,5.784,5.784,5.7839,0,5.7646,5.7728,5.7664,5.7716,5.7804,5.7748,5.7837,5.7825,5.7825,5.7872,5.7803,5.7849,5.7792,5.7833,5.7801,5.788,5.789,5.7876,5.7866,5.788,5.7881,5.7888,5.7874,5.7847,5.7845,5.7844,5.7843,0,5.7874,5.7835,5.792,5.7901,5.7898,5.7963,5.7946,5.7993,5.7969,5.803,5.8041,5.8004,5.8048,5.8009,5.8052,5.803,5.8135,5.8111,5.8133,5.8124,5.8207,5.8197,5.8492,5.8525,5.8259,5.8262,5.8264,0,5.8011,5.8071,5.8057,5.8082,5.8082,5.8126,5.8146,5.8093,5.8117,5.8126,5.8171,5.8208,5.8235,5.8309,5.8286,5.8318,5.829,5.8391,5.8295,5.8305,5.8286,5.828,5.8284,5.841,5.8413,5.8416,5.8418,0,5.8258,5.8234,5.8266,5.829,5.8316,5.8334,5.8346,5.8371,5.8316,5.8347,5.8389,5.841,5.8452,5.8489,5.8513,5.851,5.8454,5.8449,5.8468,5.8481,5.8489,5.848,5.8181,5.8441,5.8439,5.8437,5.8436,5.8435,5.844,5.8488,5.8483,5.852,5.8523,5.8535,5.8576,5.8556,5.859,5.8618,5.8586,5.8637,5.8638,5.8664,5.8667,5.8706,5.8664,5.8694,5.8701,5.8708,5.8717,5.8487,5.8711,5.8711,5.871,5.8709,5.8709,0,5.8678,5.867,5.8705,5.8721,5.875,5.8694,5.8704,5.8731,5.8776,5.8781,5.8808,5.8855,5.889,5.887,5.89,5.8935,5.8909,5.8944,5.8938,5.8937,5.8756,5.8733,5.8963,5.8963,5.8963,5.8963,5.8963,5.8963,5.8805,5.888,5.8857,5.8932,5.8924,5.8971,5.8981,5.8991,5.8994,5.9049,5.9077,5.9063,5.9057,5.9085,5.9114,5.9107,5.912,5.9162,5.9146,5.8976,5.8951,5.8927,5.8905,5.9167,5.9167,5.9323,5.9324,5.9326]},{"header":{"parameterUnit":"m.s-1","parameterCategory":1,"la1":30.2991,"la2":30.254,"lo1":-89.0895,"lo2":-89.0444,"dy":0.0017,"dx":0.0017,"nx":28,"ny":28,"refTime":"2024-07-12T21:00:00:Z","depth":0,"parameterNumber":3,"parameterNumberName":"V-component_of_WINDS"},"data":[0,0,0,0,0,0,0,0,0,0,0,0,0,0,0,0,0,0,0,0,0,0,0,0,0,0,0,0,0,0,0,0,0,0,0,0,0,0,0,0,0,0,0,0,0,0,0,0,0,0,0,0,0,0,0,0,0,0,2.6245,2.6246,0,2.6302,2.6302,2.6303,2.6297,2.6297,2.6296,2.6295,2.6348,2.635,2.6353,0,0,0,0,0,0,0,0,0,0,0,0,0,2.6127,2.613,2.6245,2.6246,2.6247,2.6302,2.6302,2.6303,2.6298,2.6297,2.6296,2.6295,2.6348,2.635,2.6353,0,0,0,0,0,0,0,0,0,0,0,0,0,2.6181,2.613,2.6245,2.6251,2.6252,2.6301,2.6302,2.6303,2.6298,2.6297,2.6295,2.6294,2.6347,2.635,2.6353,2.64,0,0,2.6363,2.6365,0,0,0,0,0,0,0,0,2.6178,2.6185,2.6249,2.625,2.6252,2.6291,2.628,2.6335,2.6298,2.628,2.6295,2.6293,2.633,2.6335,2.6348,2.6402,2.6404,2.6364,2.6366,2.6367,2.6368,0,0,0,0,0,0,0,2.6174,2.6182,2.6267,2.625,2.6252,2.6249,2.6255,2.6291,2.6311,2.6282,2.6281,2.6288,2.633,2.6345,2.6349,2.6405,2.6364,2.6366,2.6369,2.637,2.6498,2.6499,0,0,0,0,0,0,2.617,2.6179,2.6266,2.6269,2.6211,2.6252,2.6259,2.628,2.6311,2.6315,2.6289,2.6288,2.634,2.6345,2.6351,2.6406,2.6367,2.637,2.6372,2.6497,2.6498,2.65,0,0,0,0,0,0,2.6167,2.6177,2.6263,2.6224,2.6235,2.6255,2.6279,2.6282,2.6296,2.6317,2.632,2.6301,2.6339,2.6346,2.6387,2.6408,2.6372,2.6375,2.6495,2.6497,2.6499,2.6518,0,0,0,0,0,0,2.6164,2.6176,2.6196,2.6225,2.6237,2.63,2.628,2.6284,2.6302,2.6301,2.6328,2.6332,2.6338,2.6382,2.6391,2.6412,2.6377,2.6493,2.6496,2.6498,2.6515,2.652,2.6524,0,0,0,0,0,2.616,2.6198,2.6197,2.6207,2.6262,2.6302,2.6309,2.6317,2.6304,2.6322,2.6336,2.6331,2.6405,2.6387,2.6396,2.6418,2.6492,2.6495,2.6498,2.6513,2.6519,2.6524,0,0,0,0,0,0,2.6169,2.6202,2.6201,2.625,2.6273,2.6301,2.6324,2.6323,2.6349,2.6347,2.6354,2.6361,2.6402,2.6414,2.6394,2.6464,2.6446,2.6451,2.6454,2.646,2.6465,2.646,2.638,0,0,0,0,0,2.6178,2.6209,2.6235,2.6276,2.6288,2.6304,2.6322,2.6326,2.635,2.6359,2.6376,2.6397,2.6425,2.6444,2.6471,2.6517,2.6522,2.6537,2.6541,2.6545,2.6549,2.6573,2.6579,2.651,2.651,2.651,0,0,2.6194,2.6216,2.6235,2.6278,2.6297,2.6327,2.6312,2.6346,2.6368,2.6364,2.6404,2.6416,2.6441,2.6485,2.6505,2.6496,2.6569,2.6549,2.6552,2.6554,2.6577,2.6583,2.6589,2.6512,2.6512,2.6512,0,0,2.624,2.6261,2.6296,2.6315,2.6344,2.6354,2.6363,2.639,2.6399,2.644,2.6437,2.6462,2.6511,2.6528,2.6543,2.6594,2.659,2.6603,2.6626,2.6649,2.6655,2.6659,2.6676,2.6682,2.6607,2.6607,2.6607,0,2.6257,2.6305,2.6314,2.6348,2.6366,2.6365,2.64,2.6418,2.6453,2.6465,2.6455,2.6515,2.6532,2.6579,2.6591,2.6604,2.6612,2.66,2.6653,2.6658,2.6663,2.6679,2.6685,2.6608,2.6608,2.6608,2.6608,0,2.6323,2.6356,2.6381,2.6416,2.6437,2.6471,2.6484,2.6504,2.6507,2.6517,2.6557,2.6577,2.6608,2.6619,2.6622,2.6666,2.666,2.6652,2.6634,2.6671,2.6686,2.6692,2.661,2.661,2.6609,2.6609,0,0,2.6377,2.6417,2.6426,2.6441,2.6472,2.6497,2.653,2.6561,2.6577,2.6601,2.6628,2.6668,2.6661,2.6678,2.6682,2.6702,2.674,2.6691,2.6692,2.6699,2.6788,2.6793,2.68,2.6737,2.6739,2.674,2.6786,0,2.6425,2.6485,2.6494,2.6547,2.6576,2.6575,2.6604,2.6625,2.6636,2.666,2.6672,2.67,2.6689,2.6699,2.6719,2.6731,2.6758,2.6728,2.676,2.6761,2.6754,2.6809,2.6814,2.6857,2.6792,2.6793,2.6794,0,2.6489,2.6516,2.6572,2.6598,2.661,2.6636,2.6664,2.6689,2.6712,2.6718,2.6737,2.6738,2.677,2.6752,2.6795,2.6775,2.6788,2.6796,2.6798,2.68,2.6779,2.6811,2.6871,2.6877,2.6803,2.6802,2.6802,0,2.6521,2.6571,2.661,2.6624,2.6655,2.6673,2.6687,2.6709,2.6726,2.6751,2.6762,2.6789,2.6803,2.6824,2.6831,2.6817,2.6874,2.6856,2.6878,2.6878,2.6889,2.6888,2.695,2.69,2.69,2.69,2.69,0,2.6573,2.6607,2.6625,2.6649,2.6686,2.6696,2.6731,2.6744,2.6764,2.6789,2.6789,2.6812,2.6822,2.6846,2.6852,2.6886,2.6893,2.6897,2.6898,2.6897,2.6896,2.6905,2.6902,2.6901,2.6901,2.6901,2.69,0,2.6615,2.6629,2.6671,2.6698,2.6705,2.6731,2.6753,2.6775,2.6786,2.6817,2.6825,2.6841,2.6869,2.6879,2.6914,2.6917,2.6957,2.6956,2.6949,2.6949,2.697,2.6967,2.7039,2.7049,2.6993,2.6994,2.6994,0,2.6647,2.6673,2.6702,2.672,2.6734,2.6763,2.6781,2.6791,2.6809,2.6837,2.6855,2.6884,2.6907,2.6952,2.6965,2.6991,2.6989,2.7013,2.6993,2.699,2.6988,2.6986,2.6988,2.7016,2.7017,2.7017,2.7018,0,2.6701,2.6706,2.6734,2.6763,2.6785,2.6808,2.683,2.6844,2.6856,2.6877,2.6907,2.6925,2.696,2.6987,2.7013,2.7025,2.7023,2.7024,2.703,2.7028,2.7023,2.7025,2.6958,2.7022,2.7022,2.7021,2.7021,2.7021,2.6738,2.676,2.6785,2.6814,2.6832,2.6853,2.6875,2.6888,2.6914,2.6944,2.6948,2.6979,2.7,2.7035,2.7048,2.7071,2.7065,2.7074,2.7076,2.7078,2.7079,2.702,2.7076,2.7076,2.7076,2.7076,2.7076,0,2.6791,2.6807,2.6834,2.6866,2.6888,2.6886,2.691,2.6929,2.6957,2.6977,2.7,2.7033,2.706,2.7075,2.7101,2.7117,2.7116,2.7123,2.7121,2.7124,2.7084,2.7075,2.7123,2.7123,2.7123,2.7123,2.7123,2.7123,2.6822,2.6859,2.6867,2.6913,2.6928,2.696,2.6974,2.6992,2.7008,2.7046,2.7068,2.7079,2.7096,2.7124,2.7147,2.7151,2.7159,2.7167,2.717,2.7132,2.7127,2.7122,2.7114,2.7169,2.7169,2.7207,2.7208,2.7208]}]]